www.pogodaiklimat.ru

Погода и климат >> Архив погоды >> Россия >> Камчатский край >> Чемурнаут


ПОГОДА в Чемурнауте

  • Прогноз погоды в Чемурнауте
  • Монитор погоды в Чемурнауте
  • Климат города

АРХИВ ПОГОДЫ в Чемурнауте

Время (UTC), дата Ветер
(напр.,м/с)
 
Видим.   Явления Облачность Т
(С)
Тd
(С)
f
(%)
Тe
(С)
Тes
(С)
Комфортность P
(гПа)
Po
(гПа)
Тmin
(С)
Tmax
(С)
R
(мм)
S
(см)
03 16.03 Ю 8 20 км 9/9 600 м
[Sc]
+0.8 -2.4 79 -6 -6 1015.2 1013.4
06 16.03 Ю 8 20 км 9/9 300 м
[St]
+0.3 -3.0 78 -7 -7 1014.2 1012.4
09 16.03 10 км снег н/о -0.2 -2.2 86 -8 -8 1014.2 1012.4 +0.8 0.2
12 16.03 ЮВ 8 4000 м слабый ливневой дождь со снегом 10/10 300 м
[Cb cap]
0.0 -1.2 92 -8 -8 1013.4 1011.6
15 16.03 ЮВ 8 20 км {ливн. осадки} 8/8 600 м
[Sc diur, vesp]
0.0 -2.7 82 -7 -7 1013.2 1011.4
18 16.03 Ю 9-12
{12}
20 км {ливн. осадки} 9/9 300 м
[Sc]
-0.2 -3.5 78 -8 -8 1013.3 1011.5
21 16.03 Ю 9-12
{12}
20 км 9/9 300 м
[Sc]
+0.1 -2.9 80 -8 -8 1013.7 1011.9 -0.5 0.6 11
00 17.03 ЮВ 9-12
{12}
50 км 8/4 300 м
[Sc Ac trans]
+1.0 -2.2 79 -6 -6 1014.5 1012.7
03 17.03 ЮВ 9-12
{12}
50 км 9/4 300 м
[Sc Ac trans Ci fib]
+1.5 -2.0 78 -6 -6 1013.9 1012.1
06 17.03 ЮВ 9-12
{12}
20 км 9/9 300 м
[Sc]
+1.3 -1.6 81 -6 -6 1014.0 1012.2
09 17.03 ЮВ 9-12
{12}
20 км 9/9 300 м
[Sc]
+0.7 -1.9 83 -7 -7 1015.1 1013.3 +1.8
12 17.03 ЮВ 9-12
{12}
20 км 9/9 300 м
[Sc]
+0.3 -3.4 76 -7 -7 1015.5 1013.7
15 17.03 В 6
{12}
20 км 9/9 300 м
[Sc]
-0.3 -4.3 74 -7 -7 1015.8 1014.0
18 17.03 В 4
{12}
20 км 10/10 300 м
[St]
-0.9 -3.4 83 -7 -7 1015.9 1014.1
21 17.03 В 3 20 км 9/9 300 м
[St]
-1.3 -4.3 80 -6 -6 1015.6 1013.8 -1.6 11
00 18.03 В 4 20 км 9/9 600 м
[Sc]
-1.1 -4.7 77 -7 -6 1015.0 1013.2
03 18.03 В 5 20 км 9/9 600 м
[Sc]
-1.7 -4.4 82 -8 -8 1014.1 1012.3
06 18.03 В 6 20 км 9/9 600 м
[Sc]
-1.9 -4.7 81 -9 -9 1013.0 1011.2
09 18.03 В 6 20 км 9/9 600 м
[Sc]
-2.3 -4.8 83 -9 -9 1012.7 1010.9 -0.6
12 18.03 В 6 20 км 9/9 600 м
[Sc]
-3.7 -6.2 83 -11 -11 1012.2 1010.4
15 18.03 В 7 20 км 9/9 600 м
[Sc]
-4.8 -7.2 83 -13 -13 1011.5 1009.7
18 18.03 В 10-14
{14}
20 км 9/9 600 м
[Sc]
-5.2 -7.3 85 -15 -15 1010.7 1008.9
21 18.03 В 10-14
{14}
20 км 9/9 600 м
[Sc]
-5.2 -8.5 78 -15 -15 1010.6 1008.8 -5.4 10
00 19.03 В 10-14
{14}
20 км 9/9 600 м
[Sc]
-4.6 -7.7 79 -14 -14 1010.1 1008.3
03 19.03 В 8-12
{14}
20 км 9/9 600 м
[Sc]
-4.4 -7.5 79 -13 -13 1009.4 1007.6
06 19.03 В 8-12
{14}
20 км 10/10 300 м
[St]
-3.2 -6.0 81 -12 -12 1009.3 1007.5
09 19.03 В 8-12
{12}
20 км 10/10 300 м
[St]
-3.8 -6.3 83 -12 -12 1009.5 1007.7 -2.3
12 19.03 В 9-12
{12}
20 км слабый ливневой снег {метель} 10/10 300 м
[Cb cap]
-4.2 -6.1 87 -13 -13 1009.8 1008.0
15 19.03 В 10-14
{14}
4000 м слабый ливневой снег {метель} 10/10 300 м
[Cb cap]
-4.8 -6.1 91 -14 -14 1010.4 1008.6
18 19.03 СВ 10-14
{14}
4000 м слабый ливневой снег {метель} 10/10 300 м
[Cb cap]
-5.3 -6.7 90 -15 -15 1010.8 1009.0
21 19.03 В 10-14
{14}
4000 м слабый ливневой снег {метель} 10/10 300 м
[Cb cap]
-5.5 -6.9 90 -15 -15 1012.0 1010.2 -5.5 1 11
00 20.03 В 10-14
{14}
4000 м слабый ливневой снег {метель} 10/10 300 м
[Cb cap]
-4.7 -6.0 91 -14 -14 1012.5 1010.7
03 20.03 В 10-14
{14}
4000 м слабый ливневой снег {метель} 10/10 300 м
[Cb cap]
-4.7 -6.3 89 -14 -14 1012.9 1011.1
06 20.03 В 10-14
{14}
4000 м слабый ливневой снег {метель} 10/10 300 м
[Cb cap]
-4.9 -6.2 91 -15 -15 1013.3 1011.5
09 20.03 В 10-14
{14}
4000 м слабый ливневой снег {метель} 10/10 300 м
[Cb cap]
-5.1 -6.8 88 -15 -15 1014.1 1012.3 -4.2 2
12 20.03 В 10-14
{14}
4000 м слабый ливневой снег {метель} 10/10 300 м
[Cb cap]
-5.6 -7.0 90 -15 -15 1014.5 1012.7
15 20.03 В 10-14
{14}
2000 м ливневой снег {метель} 10/10 300 м
[Cb cap]
-6.4 -7.6 91 -16 -16 1015.2 1013.4
18 20.03 В 10-14
{14}
4000 м слабый ливневой снег {метель} 10/10 300 м
[Cb cap]
-6.5 -8.1 88 -17 -17 1015.3 1013.5
21 20.03 В 10-14
{14}
20 км позёмок {ливн. осадки, метель} 9/9 600 м
[Sc diur, vesp]
-6.7 -8.7 86 -17 -17 1015.7 1013.9 -6.9 2 13
00 21.03 В 10-14
{14}
20 км позёмок {ливн. осадки, метель} 9/9 600 м
[Sc]
-5.5 -8.1 82 -15 -15 1016.3 1014.5
03 21.03 В 10-14
{14}
20 км позёмок {метель} 9/9 600 м
[Sc]
-4.7 -7.1 83 -14 -14 1016.2 1014.4
06 21.03 В 10-14
{14}
20 км позёмок {метель} 9/9 600 м
[Sc]
-4.4 -7.1 81 -14 -14 1016.4 1014.6
09 21.03 В 10-14
{14}
20 км позёмок {метель} 9/9 600 м
[Sc]
-4.7 -7.1 83 -14 -14 1016.9 1015.1 -3.8
12 21.03 В 10-14
{14}
20 км позёмок {метель} 9/9 600 м
[Sc]
-4.5 -6.8 84 -14 -14 1017.0 1015.2
15 21.03 В 10-14
{14}
20 км позёмок {метель} 9/9 600 м
[Sc]
-4.1 -6.4 84 -13 -13 1016.3 1015.5
18 21.03 В 10-14
{14}
20 км позёмок {метель} 9/9 600 м
[Sc]
-4.3 -6.6 84 -14 -14 1016.1 1014.3
21 21.03 В 10-14
{14}
20 км позёмок {метель} 9/9 600 м
[Sc]
-4.6 -6.6 86 -14 -14 1016.4 1014.6 -4.9 12
00 22.03 В 10-14
{14}
20 км позёмок {метель} 9/9 600 м
[Sc]
-4.4 -7.9 77 -14 -14 1015.9 1014.1
03 22.03 В 10-14
{14}
4000 м слабый ливневой снег {метель} 10/10 300 м
[Cb cap]
-4.2 -6.5 84 -14 -14 1015.2 1013.4
06 22.03 В 10-14
{14}
20 км позёмок {ливн. осадки, метель} 9/9 300 м
[St]
-4.2 -7.2 80 -14 -14 1015.1 1013.3
09 22.03 В 10-14
{14}
20 км позёмок {метель} 10/10 300 м
[St]
-4.0 -7.0 80 -13 -13 1015.2 1013.4 -4.0 0.7
12 22.03 В 10-14
{14}
20 км позёмок {метель} 10/10 300 м
[St]
-4.5 -7.2 81 -14 -14 1014.7 1012.9
15 22.03 В 10-14
{14}
20 км позёмок {метель} 10/10 300 м
[St]
-4.6 -7.0 83 -14 -14 1016.4 1014.5
18 22.03 В 10-14
{14}
20 км позёмок {метель} 10/10 300 м
[St]
-4.4 -7.1 81 -14 -14 1016.2 1014.4
21 22.03 В 10-14
{14}
20 км позёмок {метель} 9/9 300 м
[Sc]
-5.5 -8.5 79 -15 -15 1016.5 1014.7 -5.7 14

 

Местоположение метеостанции Чемурнаут (Камчатский край, Россия): широта 60.73 долгота 163.00 высота над уровнем моря 14 м.

В архиве по умолчанию представлена погода в Чемурнауте за последнюю неделю. Архивные данные за месяц целиком и за предыдущие месяцы, начиная с января 2011 года, Вы можете получить, выбрав интересующий диапазон дат из раскрывающегося списка и нажав кнопку "Ввод!".

Внимание! Время в таблицах - всемирное. Для получения местного времени необходимо прибавить поправку, которая в Чемурнауте равна 12 ч.

Смотрите также архив погоды в соседних городах и на ближайших метеорологических станциях:

Погода в Оссоре (Камчатский край, Россия) (167 км)
Погода в Тиличиках (Камчатский край, Россия) (167 км)
Погода в Эвенске (Магаданская область, Россия) (242 км)
Погода в Палане (Камчатский край, Россия) (252 км)
Погода в Каменском (Камчатский край, Россия) (258 км)
Погода в Усть-Воямполке (Камчатский край, Россия) (331 км)
Погода на Мысе Озерном (Камчатский край, Россия) (343 км)
Погода в Апуке (Камчатский край, Россия) (362 км)
Погода в Лабазной (Магаданская область, Россия) (370 км)
Погода в Слаутном (Камчатский край, Россия) (372 км)

Пояснения к столбцам:

Ветер - указаны скорость ветра в м/с - средняя за 10 мин, порывы в срок и между сроками (в фигурных скобках) и направление, откуда дует ветер: С - северный, СВ - северо-восточный, В - восточный, ЮВ - юго-восточный, Ю - южный, ЮЗ - юго-западный, З - западный, СЗ - северо-западный.
Видимость - горизонтальная дальность видимости в метрах или километрах. При видимости от 1 до 10 км при отсутствии осадков обычно наблюдается дымка, при ухудшении видимости до 1 км и менее - туман. В сухую погоду видимость может ухудшаться дымом, пылью или мглою.
Явления - указаны атмосферные явления, наблюдавшиеся в срок или в последний час перед сроком; фигурными скобками обозначены явления, наблюдавшиеся между сроками (за 1-3 часа до срока); квадратными скобками обозначены град или гололедные отложения с указанием их диаметра в мм.
Облачность - указаны через наклонную черту общая и нижняя облачность в баллах и высота нижней границы облаков в метрах; квадратными скобками обозначены формы облаков: Ci - перистые, Cs - перисто-слоистые, Cc - перисто-кучевые, Ac - высококучевые, As - высокослоистые, Sc - слоисто-кучевые, Ns - слоисто-дождевые, Cu - кучевые, Cb - кучево-дождевые. Подробнее классификацию облаков см. в Атласе облаков (PDF).
T - Температура воздуха - температура, измеренная на высоте 2 м над землей.
Td - Температура точки росы - температура, при понижении до которой содержащийся в воздухе водяной пар достигнет насыщения.
f - Относительная влажность воздуха - влажноcть воздуха, измеренная на высоте 2 м над землей.
Te - Эффективная температура - температура, которую ощущает одетый по сезону человек в тени. Характеристика душности погоды. При расчете учитывается влияние влажности воздуха и скорости ветра на теплоощущения человека.
Tes - Эффективная температура на солнце - температура, которую ощущает человек, с поправкой на солнечный нагрев. Характеристика знойности погоды. Зависит от высоты солнца над горизонтом, облачности и скорости ветра. Ночью, в пасмурную погоду, а также при ветре 12 м/с и более поправка равна нулю.
P - Атмосферное давление - приведенное к уровню моря атмосферное давление.
Po - Атмосферное давление - измеренное на уровне метеостанции атмосферное давление.
Tmin - Минимальная температура - минимум температуры воздуха на высоте 2 м над землей.
Tmax - Максимальная температура - максимум температуры воздуха на высоте 2 м над землей.
R - Количество осадков - Количество выпавших осадков, мм. При наведении курсора мыши на число - период времени, за который выпало указанное количество осадков.
S - Снежный покров - Высота снежного покрова, см. При наведении курсора мыши на число - состояние снежного покрова и степень покрытия местности в баллах.